233P/La Sagra (2015)

Japanese version
Home page
Updated on May 16, 2015

---------------------------------------------------------------------

* Profile

* Orbital Elements

Epoch 2015 June 27.0 TT = JDT 2457200.5
T 2015 June 25.44055 TT                                 MPCW
q   1.7865324            (2000.0)            P               Q
n   0.18669016     Peri.   27.24823     -0.20305993     -0.96077488
a   3.0319482      Node    74.96786     +0.85898387     -0.26738825
e   0.4107642      Incl.   11.27859     +0.47001422     +0.07358780
P   5.28
From 54 observations 2005 Feb. 9-2010 Feb. 18, mean residual 0".6.

* Magnitudes Graph

        m1 = 16.5 + 5 log d + 10.0 log r

---------------------------------------------------------------------

The orbital elements are published on M.P.E.C. 2015-E14.
The magnitudes graphs are made with Comet for Windows.

---------------------------------------------------------------------

Copyright(C) Seiichi Yoshida (comet@aerith.net). All rights reserved.